Location: ??
(35.5052°N, 139.7262°E)
Time: 09:51:18
(UTC+00:00)

OAO 1 - Pass Details

Date: 30 October 2021
Orbit: 773 x 784 km, 35.0° (Epoch: 28 November)

Event Time Altitude Azimuth Distance (km) Brightness Sun altitude
Rises 09:46:33 0° 279° (W) 3,247 9.1 -24.6°
Reaches altitude 10° 09:49:03 10° 275° (W) 2,321 8.0 -25.1°
Maximum altitude 09:54:25 56° 198° (SSW) 916 4.9 -26.2°
Enters shadow 09:55:00 53° 172° (S) 945 4.8 -26.3°
